Location: Kellogg
(38.0159°N, 90.0546°W)
Time: 18:42:34
(UTC+00:00)

Envisat - Pass Details

Date: 14 August 2024
Orbit: 762 x 764 km, 98.3° (Epoch: 11 September)

Event Time Altitude Azimuth Distance (km) Brightness Sun altitude
Rises 09:19:33 0° 10° (N) 3,233 7.0 -20.7°
Reaches altitude 10° 09:21:52 10° 9° (N) 2,303 6.1 -20.4°
Maximum altitude 09:26:56 76° 285° (WNW) 789 2.9 -19.6°
Enters shadow 09:29:11 34° 206° (SSW) 1,244 3.6 -19.2°
